Overview Statistics Trail Chart Weather Telemetry Raw packets
 

This is the latest recevied weather packets stored in our database for station/object N3EG. If no packets are shown the sender has not sent any weather packets the latest 10 day(s).

<< 3 4 5 6 7 8 9 >>
Time Temp. Humidity Pressure Rain* Wind** Luminosity Snow
1788645903 21.67° C 61% 1016.4 hPa 0 mm - - -
1788645603 21.67° C 64% 1016.4 hPa 0 mm - - -
1788645302 21.11° C 64% 1016.4 hPa 0 mm - - -
1788645003 21.11° C 66% 1016.5 hPa 0 mm - - -
1788644703 21.67° C 67% 1016.5 hPa 0 mm - - -
1788644402 22.22° C 66% 1016.5 hPa 0 mm - - -
1788644103 22.22° C 63% 1016.6 hPa 0 mm - - -
1788643802 22.22° C 60% 1016.5 hPa 0 mm - - -
1788643503 22.22° C 59% 1016.6 hPa 0 mm - - -
1788643203 22.22° C 58% 1016.6 hPa 0 mm - - -
1788642902 21.67° C 57% 1016.6 hPa 0 mm - - -
1788642603 21.67° C 58% 1016.7 hPa 0 mm - - -
1788642303 22.22° C 59% 1016.8 hPa 0 mm - - -
1788642002 21.67° C 61% 1016.8 hPa 0 mm - - -
1788641703 21.11° C 63% 1016.8 hPa 0 mm - - -
1788641403 21.11° C 62% 1016.8 hPa 0 mm - - -
1788641102 21.67° C 62% 1016.8 hPa 0 mm - - -
1788640803 21.67° C 62% 1016.8 hPa 0 mm - - -
1788640503 21.67° C 63% 1016.8 hPa 0 mm - - -
1788640203 21.67° C 62% 1016.9 hPa 0 mm - - -
1788639903 21.11° C 66% 1017 hPa 0 mm - - -
1788639602 21.11° C 63% 1017 hPa 0 mm - - -
1788639303 21.11° C 65% 1017.1 hPa 0 mm - - -
1788639003 21.11° C 67% 1017 hPa 0 mm - - -
1788638702 20.56° C 64% 1017.1 hPa 0 mm - - -

* Rain latest hour (hover to see other rain measurements)
** Current wind speed in m/s (hover to see current wind gust speed)